User: anonymous
Location: Cluny
(50.9333°N, 112.8167°W)
Time: 05:58:56
(UTC-06:00)
Language:

Cosmos 1743 Rocket - Orbit

View from above orbital plane
View from above orbital plane
View from above satellite
View from above satellite

Ground track
Ground track

The orbit data is extracted from the following two-line orbital elements,

1 16720U 86034B   14293.48980413  .00000728  00000-0  86735-4 0  5900
2 16720 082.5554 066.2743 0021566 065.9828 002.3416 14.82829432535386
Epoch (UTC): 20 October 2014 11:45:19
Eccentricity: 0.0021566
inclination: 82.5554°
perigee height: 605 km
apogee height: 635 km
right ascension of ascending node: 66.2743°
argument of perigee: 65.9828°
revolutions per day: 14.82829432
mean anomaly at epoch: 2.3416°
orbit number at epoch: 53538

The dashed part of the orbit path shows where the satellite is in the earth's shadow,  

DLR